SCP
0 0 0 0 0 0 0 0 0 0 0 0 0 0 0 0 0 0 0 0 0 0 0 0 0 0 0 0 0 0 0 0 0 0 0 0 0 0
0 0 0 0 0 0 0 0 0 0 0 0 0 0 0 0 0 0 0 0 0 0 0 0 0 0 0 0 0 0 0 0 0 0 0 0 0 0
0 0 0 0 0 0 0 0 0 0 0 0 0 0 0 0 0 0 0 0 0 0 0 0 0 0 0 0 0 0 0 0 0 0 0 0 0 0
0 0 0 0 0 0 0 0 0 0 0 0 0 0 0 0 0 0 0 0 0 0 0 0 0 0 0 0 0 0 0 0 0 0 0 0 0 0
0 0 0 0 0 0 0 0 0 0 0 0 0 0 0 0 0 0 0 0 0 0 0 0 0 0 0 0 0 0 0 0 0 0 0 0 0 0
0 0 0 0 0 0 0 0 0 0 0 0 0 0 0 0 0 0 0 0 0 0 0 0 0 0 0 0 0 0 0 0 0 0 0 0 0 0
0 0 0 0 0 0 0 0 0 0 0 0 0 0 0 0 0 0 0 0 0 0 0 0 0 0 0 0 0 0 0 0 0 0 0 0 0 0
0 0 0 0 0 0 0 0 0 0 0 0 0 0 0 0 0 0 0 0 0 0 0 0 0 0 0 0 0 0 0 0 0 0 0 0 0 0
0 0 0 0 0 0 0 0 0 0 0 0 0 0 0 0 0 0 0 0 0 0 0 0 0 0 0 0 0 0 0 0 0 0 0 0 0 0
0 0 0 0 0 0 0 0 0 0 0 0 0 0 0 0 0 0 0 0 0 0 0 0 0 0 0 0 0 0 0 0 0 0 0 0 0 0
0 0 0 0 0 0 0 0 0 0 0 0 0 0 0 0 0 0 0 0 0 0 0 0 0 0 0 0 0 0 0 0 0 0 0 -0 0 0
0 0 0 0 0 0 0 0 0 0 0 0 0 0 0 0 0 0 0 0 0 0 0 0 0 0 0 0 0 0 0 0 0 0 0 0 0 0
0 0 0 0 0 0 0 0 0 0 0 0 0 0 0 0 0 0 0 0 0 0 0 0 0 0 0 0 0 0 0 0 0 0 0 0 0 0
0 0 0 0 0 0 0 0 0 0 0 0 0 0 0 0 0 0 0 0 0 0 0 0 0 0 0 0 0 0 0 0 0 0 0 0 0 0
0 0 0 0 0 0 -0 0 0 0 0 0 0 0 0 0 0 0 0 0 0 0 0 0 0 0 0 0 0 0 0 0 0 0 0 0 0 0
0 0 0 0 0 0 0 0 0 0 0 0 0 0 0 0 0 0 0 0 0 0 0 0 0 0 0 0 0 0 0 0 0 0 0 0 0 0
0 0 0 0 0 0 0 0 0 0 0 0 0 0 0 0 0 0 0 0 0 0 0 0 0 0 0 0 0 0 0 0 0 0 0 0 0 0
0 0 0 0 0 0 0 0 0 0 0 0 0 0 0 0 0 0 0 0 0 0 0 0 0 0 0 0 0 0 0 0 0 0 0 0 0 0
0 0 0 0 0 0 0 0 0 0 0 0 0 0 0 0 0 0 0 0 0 0 0 0 0 0 0 0 0 0 0 0 0 0 0 0 0 0
0 0 0 0 0 0 0 0 0 0 0 0 0 0 0 0 0 0 0 0 0 0 0 0 0 0 0 0 0 0 0 0 0 0 0 0 0 0
0 0 0 0 0 0 0 0 0 0 0 0 0 0 0 0 0 0 0 0 0 0 0 0 0 0 0 0 0 0 0 0 0 0 0 0 0 0
0 0 0 0 0 0 0 0 0 0 0 0 0 0 0 0 0 0 0 0 0 0 0 0 0 0 0 0 0 0 0 0 0 0 0 0 0 0
0 0 0 0 0 0 0 0 0 0 0 0 0 0 0 0 0 0 0 0 0 0 0 0 0 0 0 0 0 0 0 0 0 0 0 0 0 0
Wind_Speed
5 5 4 2 3 3 3 4 4 4 3 3 2 3 1 3 3 1 2 7 5 4 3 2 2 2 2 3 3 4 4 5 6 7 8 9 10 11
2 1 2 2 1 2 2 3 4 4 2 1 2 3 4 2 4 2 3 8 8 6 6 5 4 4 4 3 4 4 4 4 5 6 7 8 8 10
4 4 2 1 1 1 1 2 2 3 2 0 2 4 4 4 4 3 2 1 6 8 8 7 6 6 5 6 6 6 6 6 6 7 7 8 8 9
4 4 3 2 1 1 1 1 1 2 2 0 1 2 3 3 3 3 3 3 3 9 7 6 6 5 5 5 6 6 6 7 7 8 8 9 9 10
3 3 3 3 2 2 2 2 1 1 1 0 1 2 2 3 2 2 3 3 2 5 5 4 4 4 4 4 5 5 6 7 8 8 9 9 10 10
5 5 5 5 4 4 3 3 2 2 2 1 1 2 2 3 3 3 2 3 4 4 4 3 1 2 2 3 5 7 7 7 7 8 8 9 10 10
8 8 9 11 12 8 5 4 3 2 2 2 2 3 4 4 4 4 4 3 2 4 5 5 3 3 1 3 5 9 8 7 7 8 8 9 10 10
9 9 10 11 14 16 17 16 12 6 4 3 3 4 5 5 5 5 5 5 4 4 6 6 4 4 4 3 6 6 6 7 8 9 9 10 11 12
8 7 7 9 9 10 12 13 14 14 11 6 6 6 5 6 6 6 5 6 6 6 6 7 5 5 6 3 4 2 3 6 8 10 10 11 12 12
8 8 8 8 7 7 8 9 9 9 9 8 7 7 7 6 6 5 5 5 5 2 4 7 7 7 7 6 2 3 3 6 8 10 10 11 12 13
9 9 9 9 7 5 8 8 8 7 10 11 9 6 6 6 7 6 6 7 6 5 5 7 8 9 8 7 2 5 7 9 10 11 11 12 12 14
8 9 10 9 8 5 6 7 7 6 5 5 4 3 2 3 2 6 7 7 7 6 6 8 9 9 8 6 7 8 8 8 9 11 12 12 11 11
8 8 8 10 11 10 8 7 5 2 3 3 3 3 3 4 5 6 7 7 8 8 8 8 9 9 9 10 10 9 9 9 9 9 8 8 9 10
8 9 9 11 11 10 8 5 3 4 2 3 3 4 5 5 6 6 6 6 6 8 8 8 9 9 11 11 11 10 10 10 9 9 9 9 9 11
9 13 12 11 11 9 7 1 2 3 4 4 4 5 5 5 5 4 5 4 6 5 4 6 8 9 10 11 11 11 11 10 9 9 10 10 10 10
11 12 10 6 6 6 5 2 4 5 5 4 4 4 4 4 5 6 6 6 6 5 4 5 7 9 10 11 11 11 10 10 10 10 11 11 10 10
9 7 6 5 5 5 4 4 4 3 4 4 4 4 5 5 5 5 5 7 7 7 7 6 7 7 9 10 10 10 10 10 10 11 11 12 11 10
4 6 5 4 4 4 4 3 3 4 4 4 4 4 5 5 6 6 6 7 7 8 8 8 8 9 9 6 5 10 10 11 11 11 11 12 12 10
4 5 4 4 4 3 3 3 3 4 3 3 4 4 5 5 6 6 6 7 8 8 8 8 8 9 11 11 9 6 11 11 11 11 11 11 12 11
4 5 4 4 3 3 3 3 3 2 2 3 4 4 5 6 6 7 6 8 9 9 9 8 8 9 11 12 12 11 8 10 11 12 12 11 11 11
4 4 4 4 3 3 3 2 2 2 3 4 4 5 5 5 6 7 7 7 8 8 9 9 8 9 10 9 10 10 10 7 8 10 12 11 12 11
4 4 4 3 2 2 1 1 1 1 2 3 4 4 5 5 6 7 8 8 8 9 10 9 10 9 9 10 11 12 12 12 9 9 10 9 9 11
3 3 3 3 2 1 0 1 2 2 3 3 4 5 5 6 6 7 8 8 8 9 10 10 9 9 9 10 11 11 14 14 11 10 8 5 10 14
Wind_Direction
197 194 231 220 244 256 267 276 281 267 204 152 162 78 34 60 36 53 65 75 64 46 27 9 352 336 321 316 314 309 303 296 290 285 282 279 277 274
211 186 237 235 241 257 267 271 283 291 298 80 91 53 24 22 64 33 76 103 73 57 51 47 41 32 19 11 359 344 335 332 325 317 309 301 294 288
183 178 190 292 257 259 272 286 297 299 277 131 95 76 45 17 28 5 14 4 87 71 60 52 45 41 37 35 30 21 14 3 349 339 330 322 313 305
176 167 169 160 152 326 344 347 359 344 300 314 67 78 59 33 30 354 11 14 53 88 76 58 47 43 41 37 31 22 14 5 356 348 341 333 325 317
138 134 127 120 113 80 43 39 27 33 356 302 74 45 43 26 2 14 34 2 345 115 111 93 66 51 44 47 38 24 13 2 355 350 347 342 336 330
95 92 87 85 84 82 74 57 47 53 65 53 74 76 50 31 358 350 356 8 347 356 13 350 126 179 150 93 56 35 20 7 0 356 351 345 340 333
97 89 80 74 63 56 55 50 49 46 69 71 69 60 42 19 7 351 351 336 353 5 339 328 327 323 267 149 84 39 17 7 2 357 353 345 338 331
108 101 96 87 81 73 66 57 48 46 46 45 62 59 45 25 6 348 349 336 336 16 331 320 326 324 324 340 63 38 11 358 352 349 343 338 331 325
111 110 103 96 97 96 88 81 67 55 45 43 62 47 43 27 358 351 0 339 330 334 325 315 325 322 319 358 97 40 346 332 331 332 329 325 320 316
99 100 101 99 91 97 98 87 77 62 51 53 58 47 41 17 350 333 323 302 282 308 341 312 326 323 320 312 176 175 260 286 296 303 305 306 307 305
96 93 99 98 76 89 103 98 93 95 88 83 78 81 72 41 358 335 340 324 327 339 3 326 324 323 311 301 277 200 247 258 265 273 279 285 290 294
106 96 83 87 71 56 96 97 91 78 74 99 110 134 92 80 20 356 346 335 331 330 11 334 323 326 313 316 327 317 302 283 262 260 263 267 276 295
116 107 95 83 74 60 63 70 59 20 74 66 66 53 39 24 17 14 0 339 334 329 344 332 320 320 310 310 313 312 315 317 313 304 283 266 263 276
111 108 104 95 83 71 73 63 337 304 50 47 39 30 17 11 9 358 350 335 321 311 316 321 314 316 311 309 313 316 317 315 314 314 317 311 283 266
98 103 114 125 122 98 92 26 320 38 44 37 30 24 13 5 339 333 326 313 290 290 318 321 310 311 307 307 309 312 315 316 317 318 316 314 315 312
115 120 124 117 112 113 142 116 63 46 23 29 21 13 0 352 346 345 338 332 324 327 330 310 303 304 302 306 305 308 313 314 316 316 317 311 308 306
136 144 144 139 123 106 91 70 58 58 39 27 11 4 358 352 349 346 337 327 331 333 331 328 319 306 297 297 304 312 317 316 318 323 315 310 310 310
153 128 122 116 105 95 88 84 68 49 28 13 6 359 353 348 346 345 341 337 334 332 331 331 328 322 318 318 321 320 319 320 319 317 312 312 313 317
155 121 117 109 100 96 85 70 61 54 14 2 3 357 349 345 345 344 342 340 337 334 332 331 332 332 328 327 330 324 319 316 314 315 317 315 314 318
131 121 120 116 109 95 80 64 51 43 19 2 2 354 347 343 342 340 342 347 334 328 328 331 338 338 327 318 313 312 307 312 319 318 319 317 314 308
125 121 120 119 108 93 76 57 35 21 12 341 356 350 342 338 340 337 334 337 319 325 331 331 335 312 300 302 306 316 325 317 299 304 313 317 319 319
127 125 118 110 105 97 91 41 359 1 349 336 352 342 337 334 334 330 330 329 328 330 327 324 324 319 319 319 319 321 325 327 315 277 264 274 307 315
127 126 133 144 142 155 113 322 313 340 346 340 339 335 333 331 327 326 326 325 326 328 326 326 328 326 325 322 321 322 326 327 327 328 324 283 255 259